Northfield, Minnesota, United States (55057)
Lat: 44.46N, Lon: 93.16W
Wx Zone: MNZ077
Local Info
Past Weather Observations for Today

NOTE: This archive is for the closest National Weather Service station to Northfield. Information may differ from the station used for current weather conditions.

Click here for Long-term Archive

Time Weather Temperature Dewpoint Humidity Pressure Winds Precip Visibility
13:33
Mostly Cloudy
84°F / 29°C 70°F / 21°C 62% 29.92 in
(1013 mb)
SSE 9.2 mph
(SSE 15 kph)
- 10SM
13:12
Mostly Cloudy
82°F / 28°C 70°F / 21°C 66% 29.95 in
(1014 mb)
SW 10.4 mph
(SW 17 kph)
- 10SM
12:53
Mostly Cloudy
82°F / 28°C 70°F / 21°C 66% 29.95 in
(1014 mb)
S 9.2 mph
(S 15 kph)
- 10SM
12:33
Mostly Cloudy
82°F / 28°C 70°F / 21°C 66% 29.95 in
(1014 mb)
S 10.4 mph
(S 17 kph)
- 10SM
12:13
Partly Cloudy
82°F / 28°C 70°F / 21°C 66% 29.95 in
(1014 mb)
S 11.5 mph
(S 19 kph)
- 10SM
11:53
Partly Cloudy
82°F / 28°C 70°F / 21°C 66% 29.95 in
(1014 mb)
S 12.7 mph
(S 20 kph)
- 10SM
11:33
Fair
N/A N/A N/A 29.95 in
(1014 mb)
SSE 9.2 mph
(SSE 15 kph)
-
11:12
Mostly Cloudy
81°F / 27°C 70°F / 21°C 70% 29.95 in
(1014 mb)
S 11.5 mph
(S 19 kph)
- 10SM
10:53
Partly Cloudy
79°F / 26°C 70°F / 21°C 74% 29.95 in
(1014 mb)
S 9.2 mph
(S 15 kph)
- 10SM
10:33
Partly Cloudy
77°F / 25°C 70°F / 21°C 79% 29.95 in
(1014 mb)
S 8.1 mph
(S 13 kph)
- 10SM
10:13
Mostly Cloudy
77°F / 25°C 70°F / 21°C 79% 29.95 in
(1014 mb)
SSE 9.2 mph
(SSE 15 kph)
- 10SM
09:53
Partly Cloudy
75°F / 24°C 68°F / 20°C 78% 29.95 in
(1014 mb)
S 9.2 mph
(S 15 kph)
- 10SM
09:33
Overcast
73°F / 23°C 68°F / 20°C 83% 29.95 in
(1014 mb)
S 9.2 mph
(S 15 kph)
- 10SM
09:13
Overcast
73°F / 23°C 68°F / 20°C 83% 29.95 in
(1014 mb)
SSE 5.8 mph
(SSE 9 kph)
- 7SM
08:52
Overcast
72°F / 22°C 68°F / 20°C 88% 29.95 in
(1014 mb)
SSE 4.6 mph
(SSE 7 kph)
- 7SM
08:33
Overcast
Fog And Mist
72°F / 22°C 68°F / 20°C 88% 29.95 in
(1014 mb)
S 6.9 mph
(S 11 kph)
- 5SM
08:13
Overcast
Fog And Mist
70°F / 21°C 66°F / 19°C 88% 29.95 in
(1014 mb)
S 5.8 mph
(S 9 kph)
- 5SM
07:53
Overcast
Fog And Mist
70°F / 21°C 66°F / 19°C 88% 29.95 in
(1014 mb)
S 5.8 mph
(S 9 kph)
- 5SM
07:33
Mostly Cloudy
Fog And Mist
70°F / 21°C 66°F / 19°C 88% 29.95 in
(1014 mb)
S 8.1 mph
(S 13 kph)
- 4SM
07:13
Partly Cloudy
Fog And Mist
68°F / 20°C 66°F / 19°C 94% 29.95 in
(1014 mb)
S 6.9 mph
(S 11 kph)
- 4SM
06:52
Mostly Cloudy
Fog And Mist
68°F / 20°C 64°F / 18°C 88% 29.95 in
(1014 mb)
S 6.9 mph
(S 11 kph)
- 4SM
06:33
Overcast
Fog And Mist
68°F / 20°C 64°F / 18°C 88% 29.95 in
(1014 mb)
S 8.1 mph
(S 13 kph)
- 3SM
06:12
Overcast
Fog And Mist
68°F / 20°C 64°F / 18°C 88% 29.95 in
(1014 mb)
S 4.6 mph
(S 7 kph)
- 3SM
05:53
Overcast
Fog And Mist
68°F / 20°C 64°F / 18°C 88% 29.95 in
(1014 mb)
S 5.8 mph
(S 9 kph)
- 3SM
05:33
Overcast
Fog And Mist
68°F / 20°C 64°F / 18°C 88% 29.95 in
(1014 mb)
S 5.8 mph
(S 9 kph)
- 4SM
05:13
Overcast
Fog And Mist
68°F / 20°C 64°F / 18°C 88% 29.95 in
(1014 mb)
S 5.8 mph
(S 9 kph)
- 5SM
04:52
Overcast
Fog And Mist
68°F / 20°C 64°F / 18°C 88% 29.95 in
(1014 mb)
S 4.6 mph
(S 7 kph)
- 5SM
04:33
Overcast
Fog And Mist
68°F / 20°C 64°F / 18°C 88% 29.95 in
(1014 mb)
S 4.6 mph
(S 7 kph)
- 5SM
04:13
Overcast
Fog And Mist
66°F / 19°C 64°F / 18°C 94% 29.95 in
(1014 mb)
S 6.9 mph
(S 11 kph)
- 5SM
03:53
Overcast
Fog And Mist
66°F / 19°C 64°F / 18°C 94% 29.95 in
(1014 mb)
S 5.8 mph
(S 9 kph)
- 4SM
03:33
Mostly Cloudy
Fog And Mist
66°F / 19°C 63°F / 17°C 88% 29.95 in
(1014 mb)
S 4.6 mph
(S 7 kph)
- 5SM
03:12
Clear
Fog And Mist
66°F / 19°C 63°F / 17°C 88% 29.95 in
(1014 mb)
S 4.6 mph
(S 7 kph)
- 5SM
02:53
Clear
66°F / 19°C 63°F / 17°C 88% 29.95 in
(1014 mb)
S 4.6 mph
(S 7 kph)
- 7SM
02:33
Clear
64°F / 18°C 63°F / 17°C 94% 29.95 in
(1014 mb)
S 3.5 mph
(S 6 kph)
- 7SM
02:13
Clear
64°F / 18°C 63°F / 17°C 94% 29.95 in
(1014 mb)
S 4.6 mph
(S 7 kph)
- 7SM
01:53
Clear
64°F / 18°C 63°F / 17°C 94% 29.95 in
(1014 mb)
S 4.6 mph
(S 7 kph)
- 7SM
01:33
Clear
64°F / 18°C 63°F / 17°C 94% 29.95 in
(1014 mb)
Calm - 7SM
01:13
Clear
64°F / 18°C 63°F / 17°C 94% 29.95 in
(1014 mb)
Calm - 7SM
00:53
Clear
64°F / 18°C 63°F / 17°C 94% 29.95 in
(1014 mb)
Calm - 7SM
00:32
Clear
64°F / 18°C 63°F / 17°C 94% 29.95 in
(1014 mb)
S 4.6 mph
(S 7 kph)
- 7SM
00:13
Clear
64°F / 18°C 61°F / 16°C 88% 29.95 in
(1014 mb)
S 4.6 mph
(S 7 kph)
- 7SM
Time Weather Temperature Dewpoint Humidity Pressure Winds Precip Visibility


Weather for websites

WeatherForYou.com, LLC is not responsible for any damages or problems caused by this service. Current weather conditions are obtained from the closest station including government and personal stations which may have varying degrees of accuracy. Weather forecasts are derived from the NOAA NDFD. Like all things, this site belongs to Jesus Christ... He just trusts us to maintain it. If you have any questions or comments email webmaster@weatherforyou.com

Copyright © 2015, WeatherForYou.com LLC. All rights reserved.